User: anonymous   Login
Location: Fours
(44.3167°N, 6.7000°E)
Time: 15:06:55
(UTC+00:00)
Language:

Cosmos 2227 - Orbit

View from above orbital plane
View from above orbital plane
View from above satellite
View from above satellite

Ground track
Ground track

The orbit data is extracted from the following two-line orbital elements,

1 22284U 92093A   22024.20019612 -.00000153  00000-0 -55952-4 0  9993
2 22284  70.9781 309.2391 0018239 157.5430 202.6494 14.13340291500298
Epoch (UTC): 24 January 2022 04:48:16
Eccentricity: 0.0018239
inclination: 70.9781°
perigee height: 835 km
apogee height: 861 km
right ascension of ascending node: 309.2391°
argument of perigee: 157.5430°
revolutions per day: 14.13340291
mean anomaly at epoch: 202.6494°
orbit number at epoch: 50029

The dashed part of the orbit path shows where the satellite is in the earth's shadow,  

DLR